Voltar ao catálogo

CZ-2C R/B

AtivoVLEO
NORAD 52794·ROCKET BODY·🇨🇳 China

Lançado Jun 2, 2022 de Xichang Satellite Launch Center

Loading…

Próximas Passagens (próximas 24 horas)

TLE

AtualizadoSource: Space-Track

Época: Sep 14, 2026, 10:26 UTC

1 52794U 22058K   26257.43531731  .00045777  00000-0  38913-3 0  9990
2 52794  50.1838  56.8810 0029962 284.6460  75.1195 15.68498607239624

Acompanhe CZ-2C R/B em tempo real com AllMySat

Download on the App Store